New Roads False River Regiona, LA

2:17 PM CDT on July 19, 2019 (GMT -0500)
False River

Weather History for KHZR - May, 2019

Change the Weather History Date:

Friday, May 31, 2019

  Actual Average (WUND) Record (WUND)
Temperature  
Mean Temperature 84 °F -  
Max Temperature 89 °F - - (-1)
Min Temperature 75 °F - - (-1)
Cooling Degree Days 18    
Growing Degree Days 34 (Base 50)    
Moisture  
Dew Point 71 °F    
Average Humidity 67    
Maximum Humidity 94    
Minimum Humidity 46    
Precipitation  
Precipitation 0.00 in - - ()
Sea Level Pressure  
Sea Level Pressure 29.96 in    
Wind  
Wind Speed 1 mph ()    
Max Wind Speed 6 mph    
Max Gust Speed -    
Visibility 8.0 miles    
Events Fog , Rain    
Averages and records for this station are not official NWS values.
T = Trace of Precipitation, MM = Missing Value Source: Averaged Metar Reports

Daily Weather History Graph

Daily Weather History Graph

Search for Another Location

Airport or City:

Astronomy

May. 31, 2019 Rise Set
Actual Time 6:03 AM CDT 8:03 PM CDT
Civil Twilight 5:36 AM CDT 8:30 PM CDT
Nautical Twilight 5:03 AM CDT 9:03 PM CDT
Astronomical Twilight 4:28 AM CDT 9:39 PM CDT
Moon 4:21 AM CDT (5/31) 5:27 PM CDT (5/31)
Length of Visible Light 14h 54m
Length of Day
13h 59m
Waning Crescent, 8% of the Moon is Illuminated
May 31
Waning Crescent
Jun 3
New
Jun 10
First Quarter
Jun 17
Full
Jun 25
Last Quarter

Hourly Weather History & Observations

Time (CDT) Temp. Heat Index Dew Point Humidity Pressure Visibility Wind Dir Wind Speed Gust Speed Precip Events Conditions
12:34 AM - - - N/A% 29.93 in 4.0 mi Calm Calm - N/A   Haze
12:55 AM - - - N/A% 29.94 in 2.5 mi Calm Calm - N/A   Clear
1:34 AM - - - N/A% 29.94 in 7.0 mi Calm Calm - N/A   Clear
1:54 AM - - - N/A% 29.94 in 7.0 mi Calm Calm - N/A   Clear
2:14 AM - - - N/A% 29.94 in 5.0 mi Calm Calm - N/A   Clear
2:36 AM - - - N/A% 29.94 in 7.0 mi Calm Calm - N/A   Clear
3:36 AM - - - N/A% 29.95 in 1.0 mi Calm Calm - N/A   Mist
4:15 AM - - - N/A% 29.96 in 5.0 mi Calm Calm - N/A   Haze
5:15 AM - - - N/A% 29.98 in 5.0 mi Calm Calm - N/A   Haze
5:34 AM - - - N/A% 29.98 in 5.0 mi Calm Calm - N/A   Haze
5:54 AM - - - N/A% 29.98 in 4.0 mi Calm Calm - N/A   Haze
6:36 AM - - - N/A% 29.98 in 0.5 mi Calm Calm - N/A Fog Fog
7:35 AM - - - N/A% 29.99 in 5.0 mi Calm Calm - N/A   Haze
7:55 AM - - - N/A% 29.99 in 7.0 mi Calm Calm - N/A   Clear
8:16 AM - - - N/A% 30.00 in 10.0 mi Calm Calm - N/A   Clear
8:35 AM - - - N/A% 30.00 in 10.0 mi Calm Calm - N/A   Clear
9:15 AM - - - N/A% 30.00 in 10.0 mi Calm Calm - N/A   Clear
9:34 AM - - - N/A% 30.00 in 10.0 mi Calm Calm - N/A   Clear
9:56 AM - - - N/A% 30.00 in 10.0 mi Calm Calm - N/A   Clear
10:35 AM - - - N/A% 30.00 in 10.0 mi Calm Calm - N/A   Clear
11:36 AM - - - N/A% 30.01 in 10.0 mi Calm Calm - N/A   Clear
11:56 AM - - - N/A% 30.00 in 10.0 mi Calm Calm - N/A   Clear
12:36 PM - - - N/A% 29.99 in 10.0 mi NNW 5.8 mph - N/A   Clear
1:15 PM 87.8 °F 90.4 °F 66.2 °F 49% 29.97 in 10.0 mi NW 4.6 mph - N/A   Clear
3:55 PM 89.6 °F 92.2 °F 66.2 °F 46% 29.92 in 10.0 mi North 3.5 mph - N/A   Clear
4:54 PM 89.6 °F 92.2 °F 66.2 °F 46% 29.92 in 10.0 mi NNW 4.6 mph - N/A   Clear
6:14 PM 86.0 °F 90.4 °F 69.8 °F 58% 29.90 in 10.0 mi Calm Calm - N/A   Clear
6:35 PM 84.2 °F 89.6 °F 71.6 °F 66% 29.91 in 10.0 mi North 4.6 mph - N/A   Clear
6:56 PM 84.2 °F 88.4 °F 69.8 °F 62% 29.92 in 10.0 mi NNW 3.5 mph - N/A   Clear
7:15 PM 84.2 °F 88.4 °F 69.8 °F 62% 29.92 in 10.0 mi Calm Calm - N/A   Clear
7:34 PM 84.2 °F 89.6 °F 71.6 °F 66% 29.92 in 10.0 mi South 3.5 mph - N/A   Clear
8:14 PM 82.4 °F 88.2 °F 73.4 °F 74% 29.92 in 10.0 mi WSW 3.5 mph - N/A   Light Drizzle
8:34 PM 80.6 °F 84.6 °F 71.6 °F 74% 29.93 in 10.0 mi SSW 5.8 mph - N/A Rain Light Rain
8:56 PM 80.6 °F 85.4 °F 73.4 °F 79% 29.93 in 10.0 mi West 4.6 mph - N/A   Clear
9:36 PM 80.6 °F 84.6 °F 71.6 °F 74% 29.92 in 10.0 mi Calm Calm - N/A   Clear
9:54 PM 78.8 °F - 71.6 °F 78% 29.92 in 10.0 mi Calm Calm - N/A   Clear
10:15 PM 78.8 °F - 73.4 °F 83% 29.92 in 10.0 mi Calm Calm - N/A   Clear
11:36 PM 75.2 °F - 73.4 °F 94% 29.96 in 10.0 mi SW 3.5 mph - N/A   Clear